This demonstration page uses our WeatherBlox Daily Observations layout. Learn more.

Left ArrowRight Arrow

31.31129, -92.44514

Hourly Observations for February 15, 2021

Temp ( °F °C ) Dew Point ( °F °C ) Humidity (%) Winds ( mph kmh ) Pressure ( in mb ) Visibility ( mi km ) Precip ( " mm )
12:53 am 00:53 Cloudy with Light Snow 23 -5 18 -7.8 81 81 N 14 22 30.13 1020 4 6 0.01 0.25
1:00 am 01:00 Cloudy with Light Snow 23 -5 19 -7.2 85 85 N 14 22 30.11 1020 3 4 0.00 0.00
1:02 am 01:02 Cloudy with Light Snow 23 -5 19 -7.2 85 85 NNE 13 20 30.11 1020 2 2 0.00 0.00
1:07 am 01:07 Cloudy with Light Snow 22 -5.6 19 -7.2 89 89 N 12 19 30.11 1020 1 1 0.00 0.00
1:20 am 01:20 Cloudy with Light Snow 22 -5.6 19 -7.2 89 89 N 14 22 30.11 1020 1 2 0.00 0.00
1:34 am 01:34 Cloudy with Light Snow 22 -5.6 19 -7.2 89 89 N 14 22 30.10 1019 2 3 0.00 0.00
1:44 am 01:44 Cloudy with Light Snow 22 -5.6 18 -7.8 85 85 NNE 15 24 30.07 1018 4 6 0.00 0.00
1:53 am 01:53 Cloudy with Light Snow 22 -5.6 18 -7.8 85 85 NNE 16 26 30.03 1017 5 8 0.01 0.25
2:53 am 02:53 Cloudy with Light Snow 22 -5.6 17 -8.3 82 82 NNE 10 17 30.03 1017 6 10 0.00 0.00
3:48 am 03:48 Cloudy with Light Snow 21 -6 18 -8 86 86 N 16 26 30.01 1016 2 3 0.03 0.76
3:53 am 03:53 Cloudy with Light Snow 21 -6.1 17 -8.3 85 85 N 15 24 30.02 1017 2 3 0.03 0.76
4:15 am 04:15 Cloudy with Light Snow 21 -6.1 18 -7.8 88 88 N 10 17 30.03 1017 1 2 0.03 0.76
4:27 am 04:27 Mostly Cloudy with Light Snow 21 -6.1 18 -7.8 88 88 N 9 15 30.04 1017 1 1 0.06 1.52
4:49 am 04:49 Cloudy with Light Snow 21 -6 18 -8 86 86 NNW 13 20 30.06 1018 1 2 0.14 3.56
4:53 am 04:53 Cloudy with Light Snow 21 -6.1 18 -7.8 88 88 NNW 9 15 30.09 1019 1 2 0.15 3.81
4:56 am 04:56 Mostly Cloudy with Light Snow 21 -6.1 18 -7.8 88 88 NW 10 17 30.09 1019 1 1 0.01 0.25
5:21 am 05:21 Mostly Cloudy with Light Snow 21 -6.1 18 -7.8 88 88 NW 18 30 30.08 1019 1 2 0.07 1.78
5:50 am 05:50 Cloudy with Light Snow 21 -6 18 -8 86 86 NW 18 30 30.12 1020 1 2 0.15 3.81
5:53 am 05:53 Mostly Cloudy with Light Snow 21 -6.1 18 -7.8 88 88 NW 15 24 30.17 1022 1 2 0.16 4.06
6:01 am 06:01 Mostly Cloudy with Light Snow 21 -6.1 18 -7.8 88 88 NW 17 28 30.15 1021 1 1 0.02 0.51
6:19 am 06:19 Mostly Cloudy with Light Snow 21 -6.1 18 -7.8 88 88 NW 14 22 30.14 1021 1 1 0.08 2.03
6:40 am 06:40 Mostly Cloudy with Light Snow 21 -6.1 18 -7.8 88 88 N 15 24 30.10 1019 1 1 0.14 3.56
6:47 am 06:47 Cloudy with Light Snow 19 -7 18 -8 93 93 N 17 28 30.08 1019 2 2 0.15 3.81
6:48 am 06:48 Cloudy with Light Snow 20 -6.7 17 -8.3 89 89 N 16 26 30.09 1019 2 3 0.15 3.81
6:55 am 06:55 Cloudy with Light Snow 21 -6.1 17 -8.3 85 85 N 13 20 30.07 1018 3 5 0.00 0.00
7:33 am 07:33 Cloudy with Light Snow 21 -6.1 16 -8.9 81 81 NNW 15 24 30.08 1019 5 8 0.00 0.00
7:53 am 07:53 Cloudy with Light Snow 20 -6.7 16 -8.9 85 85 N 16 26 30.10 1019 6 10 0.00 0.00
8:21 am 08:21 Cloudy with Light Snow 20 -6.7 16 -8.9 85 85 NW 16 26 30.11 1020 2 3 0.00 0.00
8:31 am 08:31 Cloudy with Light Snow 20 -6.7 15 -9.4 81 81 NNW 17 28 30.10 1019 3 4 0.00 0.00
8:39 am 08:39 Cloudy with Light Snow 20 -6.7 14 -10 78 78 NNW 16 26 30.11 1020 5 8 0.00 0.00
8:53 am 08:53 Cloudy with Light Snow 20 -6.7 14 -10 78 78 NNW 18 30 30.11 1020 5 8 0.00 0.00
9:53 am 09:53 Cloudy 21 -6.1 12 -11.1 68 68 NW 17 28 30.13 1020 10 16 0.00 0.00
10:53 am 10:53 Cloudy 21 -6.1 13 -10.6 71 71 NW 14 22 30.14 1021 10 16 0.00 0.00
11:53 am 11:53 Cloudy 23 -5 14 -10 68 68 NNW 14 22 30.13 1020 10 16 0.00 0.00
12:53 pm 12:53 Cloudy 24 -4.4 14 -10 65 65 NW 14 22 30.11 1020 10 16 0.00 0.00
1:53 pm 13:53 Cloudy 24 -4.4 15 -9.4 68 68 WNW 15 24 30.11 1020 10 16 0.00 0.00
2:53 pm 14:53 Cloudy 24 -4.4 14 -10 65 65 NW 20 31 30.11 1020 10 16 0.00 0.00
3:53 pm 15:53 Mostly Cloudy 23 -5 12 -11.1 63 63 NNW 23 37 30.12 1020 10 16 0.00 0.00
4:00 pm 16:00 Cloudy 24 -4.4 13 -10.6 62 62 NNW 18 30 30.10 1019 10 16 0.00 0.00
4:53 pm 16:53 Cloudy 23 -5 12 -11.1 63 63 NW 20 31 30.14 1021 10 16 0.00 0.00
5:36 pm 17:36 Cloudy 22 -5.6 12 -11.1 66 66 NNW 16 26 30.12 1020 10 16 0.00 0.00
5:53 pm 17:53 Mostly Cloudy 22 -5.6 12 -11.1 66 66 NW 17 28 30.14 1021 10 16 0.00 0.00
6:53 pm 18:53 Mostly Clear 20 -6.7 11 -11.7 68 68 NW 15 24 30.15 1021 10 16 0.00 0.00
7:49 pm 19:49 Mostly Cloudy 19 -7 10 -12 68 68 NW 13 20 30.16 1021 10 16 0.00 0.00
7:53 pm 19:53 Mostly Cloudy 19 -7.2 10 -12.2 68 68 NW 16 26 30.17 1022 10 16 0.00 0.00
8:53 pm 20:53 Cloudy 18 -7.8 9 -12.8 68 68 NW 16 26 30.25 1024 10 16 0.00 0.00
9:53 pm 21:53 Cloudy 17 -8.3 9 -12.8 70 70 NW 17 28 30.24 1024 10 16 0.00 0.00
10:53 pm 22:53 Cloudy 17 -8.3 8 -13.3 68 68 NW 13 20 30.22 1023 10 16 0.00 0.00
11:53 pm 23:53 Cloudy 17 -8.3 8 -13.3 68 68 NW 14 22 30.24 1024 10 16 0.00 0.00

Powered by AerisWeather